Location: St. Louis
(38.6270°N, 90.1994°W)
Time: 20:23:05
(UTC-06:00)

Vanguard 3 - Pass Details

Date: 06 December 2021
Orbit: 508 x 3260 km, 33.3° (Epoch: 19 January)

Event Time Altitude Azimuth Distance (km) Brightness Sun altitude
Exits shadow 02:16:09 51° 143° (SE) 3,802 10.3 -55.3°
Drops below altitude 10° 02:32:53 10° 83° (E) 5,743 11.9 -52.2°
Sets 02:37:00 0° 79° (E) 6,508 12.4 -51.4°
